RH
92 90 90 92 93 93 94 96 98 95 92 93 93 95 96 94 96 99 97 95 94 93 94 92 92 96 98 94 96 97 96 97 96 85 89 88 88 95 95 96 94 90 88
90 89 92 91 91 93 93 94 93 94 94 92 90 90 89 88 90 93 96 96 99 99 96 97 97 96 92 90 92 93 92 88 94 94 88 94 92 92 94 95 94 90 90
90 88 92 96 92 93 92 90 89 90 91 88 89 90 89 90 90 89 89 92 94 97 97 97 95 93 94 96 95 94 93 91 92 96 93 92 95 95 96 93 93 94 93
86 93 96 96 96 94 93 93 92 89 89 88 87 87 89 88 90 90 91 93 92 91 92 94 95 97 97 94 94 94 94 96 96 96 95 92 96 96 96 95 98 98 99
85 90 94 98 93 95 95 93 92 93 90 85 87 87 86 87 89 93 89 89 89 89 89 86 90 94 94 97 95 98 97 96 95 96 96 99 98 99 98 97 98 98 99
79 82 83 89 88 86 88 88 86 88 89 88 87 86 88 83 91 89 87 87 86 87 90 87 84 89 91 93 96 99 99 99 99 99 98 98 96 95 95 97 98 99 99
80 79 79 78 79 82 80 83 87 88 86 88 88 87 88 87 89 88 86 85 88 90 92 91 86 83 92 91 94 97 96 97 99 98 99 97 96 95 94 98 98 97 95
81 80 78 78 76 75 76 82 85 84 89 89 88 86 88 84 86 87 86 85 88 88 90 90 91 91 93 95 95 96 98 98 97 94 98 98 99 98 98 95 95 97 99
88 87 85 81 81 83 85 87 85 87 91 95 90 83 85 84 81 83 84 87 84 90 90 90 90 92 90 92 93 96 98 98 99 96 94 94 94 93 95 99 100 99 100
80 90 90 88 89 89 89 90 90 85 92 90 94 90 83 86 82 82 80 84 89 90 89 86 85 87 88 90 92 94 97 99 97 95 96 95 96 96 96 98 99 100 100
68 66 76 87 85 86 86 84 86 88 86 88 88 89 88 85 82 76 78 91 95 90 92 93 93 81 82 86 91 96 98 97 96 96 96 96 96 96 96 96 98 98 100
49 56 58 62 65 66 77 81 80 83 85 86 87 87 87 87 76 76 74 76 84 96 97 95 93 85 82 86 90 91 94 95 95 95 95 97 97 97 96 97 97 97 98
43 51 53 53 50 55 66 76 79 78 80 83 85 87 87 85 86 76 76 76 79 92 94 94 88 86 87 88 86 88 90 93 95 95 97 98 98 98 98 98 98 98 96
46 49 50 53 52 52 57 60 78 81 80 81 85 89 89 86 86 83 84 87 79 86 89 90 87 88 86 88 88 88 92 94 95 96 97 97 97 96 96 98 97 98 96
49 50 58 57 57 55 66 77 76 87 80 85 89 88 91 91 84 73 77 85 86 83 88 87 88 89 89 90 89 92 90 91 94 95 95 95 94 94 95 97 97 97 96
58 58 65 66 64 61 61 65 74 78 72 68 65 80 86 67 64 64 67 70 68 72 83 90 91 90 88 87 88 89 90 88 92 94 94 95 95 96 94 91 91 95 96
76 66 67 71 71 72 73 77 81 77 84 85 68 67 63 65 69 64 64 66 64 67 86 89 90 90 87 84 87 86 88 87 86 84 88 88 87 88 89 92 93 92 93
84 78 78 82 84 83 83 84 86 86 87 86 74 76 64 60 69 63 64 69 83 76 79 84 88 87 84 84 86 89 87 90 88 86 91 92 91 91 89 82 80 92 87
76 78 84 84 84 83 83 83 82 81 82 83 83 85 77 58 65 64 69 87 89 87 81 84 85 85 87 85 93 91 94 89 92 94 92 91 92 94 94 93 92 83 84
76 78 79 78 80 79 79 80 77 77 79 82 83 92 87 79 89 88 92 92 90 87 88 84 88 88 88 86 87 92 89 92 92 93 92 94 92 92 94 92 90 92 86
77 71 75 69 72 74 78 75 74 81 82 82 86 96 86 93 91 90 91 93 93 91 90 89 90 91 88 86 85 89 92 92 89 89 93 91 92 94 89 90 92 87 80
66 64 64 68 65 75 74 70 78 78 78 81 80 77 84 93 92 92 91 95 95 93 93 90 92 92 89 93 94 92 91 93 93 91 91 92 92 91 95 93 90 91 85
62 69 68 63 70 74 78 78 81 82 82 83 82 85 86 93 95 93 93 96 93 94 97 95 96 94 90 90 92 88 91 93 93 93 95 94 94 91 93 93 90 91 93
63 74 70 73 81 79 84 87 85 85 81 84 87 87 87 90 90 91 95 97 92 92 95 92 95 91 90 92 91 86 89 94 91 91 94 96 91 86 88 90 93 90 93
77 82 83 83 84 86 86 84 86 86 86 87 87 88 86 88 87 91 93 95 93 91 89 92 95 88 87 90 92 91 95 98 95 95 94 95 91 90 91 94 92 93 87
80 81 84 85 86 88 87 86 87 89 89 89 91 91 87 86 90 91 91 93 96 91 85 94 96 86 77 94 88 98 96 96 95 92 95 94 94 89 91 94 86 94 86
Wind_Speed
9 12 21 20 18 16 16 17 15 16 17 16 16 14 17 13 8 4 7 10 12 11 10 11 11 6 7 12 8 4 5 4 7 10 5 6 6 8 7 9 10 11 11
12 21 24 19 17 14 17 17 14 17 20 17 17 16 14 14 13 12 12 9 5 6 8 8 7 5 11 12 9 12 10 9 8 14 8 5 6 6 8 10 9 10 11
19 22 25 22 20 22 18 18 18 19 17 16 16 17 15 16 14 11 10 10 8 10 6 7 9 8 10 6 6 8 9 8 8 9 8 5 5 4 5 7 9 11 10
20 20 23 21 20 16 16 18 20 20 20 17 17 15 16 15 16 13 10 10 11 11 12 11 15 13 11 10 11 12 10 9 8 9 9 9 4 3 4 6 6 7 3
22 23 23 19 19 18 21 22 17 19 18 17 17 18 16 15 12 14 11 13 13 13 13 13 12 14 17 13 9 10 9 10 11 9 10 5 5 4 7 5 8 6 2
19 18 15 18 17 15 15 16 13 14 17 16 15 15 16 13 23 23 16 12 14 14 14 13 12 17 18 19 18 15 12 7 5 4 3 6 8 7 6 8 7 3 3
16 19 20 18 14 15 15 14 14 18 15 14 14 14 16 17 28 20 19 12 12 12 13 13 12 11 16 13 13 12 14 17 9 5 5 3 6 5 9 9 10 7 7
19 18 18 15 16 16 15 15 17 14 13 13 15 16 16 18 28 26 17 12 10 11 13 15 13 14 17 15 10 8 7 10 11 8 8 7 7 9 7 6 8 7 4
14 14 13 13 13 11 13 13 12 12 12 13 15 17 17 17 28 28 16 11 14 13 11 13 14 14 24 24 11 8 7 9 7 10 11 11 10 15 14 4 4 5 2
12 8 7 9 12 14 14 14 12 12 11 9 10 12 20 16 27 27 22 11 12 9 11 13 22 19 23 23 12 10 10 10 10 10 9 10 9 10 13 7 3 4 3
8 9 9 6 9 9 10 11 12 11 10 13 14 12 14 17 19 28 28 12 9 8 8 8 9 21 24 23 18 11 10 7 9 7 7 7 8 9 8 8 8 3 2
11 10 10 8 6 7 11 12 13 11 10 12 11 10 10 13 23 24 25 21 18 7 7 6 8 18 19 20 14 18 15 8 6 6 7 8 7 8 7 8 8 8 8
13 13 12 13 12 11 11 11 10 12 11 11 10 10 9 9 10 21 20 21 17 9 8 10 14 13 12 10 18 16 10 8 6 7 7 7 7 7 6 4 8 7 9
13 14 14 14 14 13 10 10 9 9 9 9 9 9 9 10 11 11 11 10 15 11 11 7 8 7 8 8 8 10 9 8 7 6 6 6 5 7 7 6 6 5 8
12 12 12 10 12 11 8 7 7 6 8 7 7 7 9 9 11 18 17 10 9 10 6 6 7 7 7 7 6 6 7 7 7 7 6 6 6 6 7 7 6 6 7
11 9 9 9 8 8 9 7 9 6 8 9 10 7 4 15 19 22 23 23 14 15 6 7 7 7 7 7 8 8 6 7 5 5 5 5 5 5 5 6 6 6 6
9 8 7 8 7 7 7 6 7 5 6 5 9 15 18 18 22 20 23 23 18 13 6 6 7 8 8 7 7 6 7 7 8 6 5 5 5 5 4 5 5 6 6
8 8 7 7 7 6 6 6 6 6 6 5 5 11 18 21 21 17 20 16 10 10 8 7 7 7 8 8 7 7 6 5 5 6 6 5 6 3 4 5 5 1 2
8 6 5 6 6 6 6 6 6 7 6 6 5 6 9 16 18 16 16 6 8 7 8 8 6 7 8 7 8 6 8 6 7 6 6 6 6 3 3 3 3 5 5
7 8 6 6 6 6 6 7 7 7 7 6 6 4 3 5 5 5 4 4 5 6 6 7 7 5 6 7 8 7 6 7 8 8 7 5 6 4 3 3 4 3 3
7 6 7 6 6 6 6 7 8 7 7 6 7 2 3 2 4 3 5 3 3 5 6 7 6 6 5 6 7 7 7 7 7 8 9 7 6 3 4 4 3 3 4
7 6 7 7 7 6 6 7 7 7 8 7 7 7 5 2 2 2 3 2 2 2 2 4 6 7 7 7 6 6 8 8 8 7 8 9 6 6 5 3 4 4 5
8 6 6 7 6 7 6 6 6 7 7 7 7 7 7 5 3 2 2 1 2 2 2 2 2 2 4 7 7 6 7 7 8 9 8 9 8 7 5 3 4 3 4
8 7 7 7 6 6 6 5 6 6 6 7 7 7 6 6 5 4 3 1 2 2 1 2 2 3 2 3 4 5 4 4 6 7 9 9 5 6 5 5 4 4 3
7 8 8 7 6 6 7 7 6 6 5 5 6 6 6 5 4 3 3 1 0 0 1 1 1 2 2 4 5 4 5 7 6 8 7 9 6 7 5 3 3 2 4
8 9 8 8 7 7 8 8 8 6 6 5 3 3 4 6 4 3 3 2 2 2 3 1 0 3 3 6 5 3 5 6 7 9 8 6 4 5 5 5 7 5 2
Wind_Direction
3 28 46 37 23 34 46 35 61 47 42 44 35 30 31 21 2 230 215 209 212 214 216 224 223 166 172 225 230 221 219 221 240 267 244 209 182 181 201 203 216 222 223
20 40 47 41 34 40 50 52 52 65 52 36 41 38 31 29 17 14 6 345 245 229 242 236 240 237 230 223 209 212 216 214 226 246 247 217 206 203 202 210 216 225 226
22 42 42 37 32 37 33 41 43 56 58 56 45 43 29 24 16 2 7 352 349 3 322 272 248 239 230 234 233 229 230 234 222 239 245 212 206 192 199 216 218 225 227
24 36 51 43 28 29 37 41 42 50 50 46 45 38 32 24 18 3 358 9 14 16 6 8 9 358 315 252 234 230 231 222 220 231 234 233 199 192 209 227 226 217 194
28 28 34 31 33 23 30 34 30 41 48 41 42 39 34 29 16 8 23 29 22 16 12 9 3 7 357 1 353 310 246 242 234 221 240 202 186 185 210 205 225 214 185
34 41 47 47 34 28 40 49 45 50 51 49 48 47 39 31 22 24 32 37 32 26 15 7 1 7 354 350 348 24 35 338 235 206 213 225 219 220 211 210 213 158 217
33 34 38 41 38 37 40 41 39 48 43 46 47 45 44 35 27 28 35 41 34 28 22 13 7 3 358 347 348 22 39 34 34 0 329 292 255 223 218 211 212 201 209
41 35 36 38 39 37 40 42 41 50 48 42 47 40 39 33 30 23 27 41 37 34 28 23 11 4 3 357 3 26 24 44 37 37 47 24 12 342 310 286 236 202 58
44 46 45 38 40 38 40 44 45 41 37 42 44 42 39 35 30 30 27 29 29 29 26 22 20 11 11 13 15 20 20 23 25 42 60 52 23 13 359 297 256 162 185
35 43 31 38 36 32 29 29 29 37 34 35 51 46 37 35 25 28 30 25 25 21 23 22 21 23 22 24 26 21 34 8 8 3 9 16 18 1 16 17 354 300 127
26 42 21 22 44 45 45 36 31 34 32 30 34 33 36 31 23 25 25 16 12 16 14 9 17 23 27 29 29 27 31 12 18 16 17 18 15 13 5 9 10 343 359
41 24 50 23 56 55 48 45 33 25 34 34 26 29 29 29 19 19 20 19 3 356 7 355 8 21 26 25 26 25 20 30 21 32 24 22 16 16 3 8 12 15 31
20 31 19 24 27 45 37 50 37 29 26 26 20 20 20 21 14 10 8 9 4 355 352 357 8 12 17 22 24 20 18 22 21 33 16 13 11 356 352 3 22 20 36
21 17 8 18 17 24 28 26 40 27 27 28 19 15 8 9 2 1 357 353 356 355 347 1 7 5 19 22 29 21 15 16 22 27 12 6 12 7 8 17 18 0 32
13 17 11 15 16 13 48 22 45 46 42 30 23 24 7 3 357 356 352 350 345 341 353 13 11 8 15 16 18 27 16 10 13 14 16 13 20 14 11 7 28 37 52
3 12 4 5 11 13 7 11 71 93 75 55 50 40 15 3 358 359 356 348 350 353 17 16 15 8 10 13 13 12 14 8 4 7 8 10 13 16 14 20 22 35 46
346 7 3 359 4 8 359 358 356 1 154 137 44 44 24 7 353 4 0 356 13 15 19 20 16 11 7 14 7 6 6 1 355 8 11 9 12 13 18 30 30 27 33
331 21 5 351 348 354 347 350 350 348 348 348 54 57 24 4 348 8 14 3 3 14 9 19 17 9 3 3 1 351 357 351 353 6 10 4 355 15 16 22 4 18 97
343 3 353 349 334 339 350 350 348 347 345 342 343 43 26 2 350 15 26 21 3 6 3 2 9 10 2 357 350 354 356 5 2 3 10 7 354 11 357 359 350 1 29
344 345 358 336 335 352 351 350 352 340 338 340 348 49 2 351 356 4 28 24 10 358 356 354 0 13 7 356 353 353 356 6 9 358 2 354 358 354 11 12 360 1 16
319 345 345 343 342 353 360 353 332 334 340 340 338 106 332 326 350 360 12 21 12 3 1 353 351 9 9 359 356 357 359 9 8 359 351 347 343 354 3 4 5 16 355
320 346 349 338 345 353 350 329 340 342 335 336 337 336 320 318 7 348 6 27 17 6 9 2 3 8 8 354 360 4 5 6 1 356 345 338 351 358 354 11 6 15 31
324 336 336 329 342 334 337 328 336 329 330 330 329 329 329 337 341 332 342 21 36 11 16 15 32 11 11 349 13 28 18 358 340 339 344 334 344 2 343 21 36 27 26
321 328 319 318 319 318 313 319 312 316 322 322 324 324 324 331 333 334 315 71 58 22 27 340 60 75 33 3 25 25 16 343 334 332 332 314 330 353 0 15 357 20 15
323 313 308 309 310 307 304 301 303 305 306 310 315 317 319 316 323 326 332 359 158 313 351 259 99 107 117 104 88 59 1 348 328 327 324 317 328 340 350 34 13 3 22
304 303 303 304 301 301 301 300 292 287 280 266 254 267 300 308 311 332 328 329 32 26 309 305 183 152 217 115 117 90 27 348 338 330 321 333 5 23 7 358 17 343 34